This is the latest recevied weather packets stored in our database for station/object DB0TV-13. If no packets are shown the sender has not sent any weather packets the latest 10 day(s).
| Time | Temp. | Humidity | Pressure | Rain* | Wind** | Luminosity | Snow |
|---|---|---|---|---|---|---|---|
| 1777374620 | 16.11° C | 54% | 1021 hPa | 0 mm | - | 833 W/m² | - |
| 1777374020 | 16.11° C | 55% | 1021.1 hPa | 0 mm | - | 797 W/m² | - |
| 1777373420 | 15.56° C | 55% | 1021.1 hPa | 0 mm | - | 829 W/m² | - |
| 1777372819 | 16.11° C | 56% | 1021.2 hPa | 0 mm | - | 864 W/m² | - |
| 1777372220 | 15.56° C | 58% | 1021.1 hPa | 0 mm | - | 879 W/m² | - |
| 1777371620 | 15° C | 59% | 1021.2 hPa | 0 mm | - | 814 W/m² | - |
| 1777371020 | 14.44° C | 59% | 1021.1 hPa | 0 mm | - | 911 W/m² | - |
| 1777370419 | 14.44° C | 61% | 1021.1 hPa | 0 mm | - | 911 W/m² | - |
| 1777369819 | 13.89° C | 62% | 1021.1 hPa | 0 mm | - | 621 W/m² | - |
| 1777369220 | 13.89° C | 62% | 1021 hPa | 0 mm | - | 363 W/m² | - |
| 1777368620 | 13.89° C | 61% | 1021 hPa | 0 mm | - | 713 W/m² | - |
| 1777368020 | 13.89° C | 62% | 1021 hPa | 0 mm | - | 791 W/m² | - |
| 1777367420 | 13.33° C | 62% | 1021 hPa | 0 mm | - | 504 W/m² | - |
| 1777366820 | 13.33° C | 61% | 1020.9 hPa | 0 mm | - | 435 W/m² | - |
| 1777366219 | 13.33° C | 60% | 1020.9 hPa | 0 mm | - | 451 W/m² | - |
| 1777365619 | 13.33° C | 64% | 1020.9 hPa | 0 mm | - | 595 W/m² | - |
| 1777365019 | 12.22° C | 64% | 1020.9 hPa | 0 mm | - | 648 W/m² | - |
| 1777364420 | 11.67° C | 66% | 1020.7 hPa | 0 mm | - | 625 W/m² | - |
| 1777363819 | 11.11° C | 67% | 1020.7 hPa | 0 mm | - | 373 W/m² | - |
| 1777363220 | 10.56° C | 68% | 1020.6 hPa | 0 mm | - | 339 W/m² | - |
| 1777362620 | 10.56° C | 69% | 1020.6 hPa | 0 mm | - | 467 W/m² | - |
| 1777362019 | 9.44° C | 71% | 1020.4 hPa | 0 mm | - | 407 W/m² | - |
| 1777361419 | 10° C | 69% | 1020.4 hPa | 0 mm | - | 421 W/m² | - |
| 1777360819 | 10.56° C | 66% | 1020.2 hPa | 0 mm | - | 291 W/m² | - |
| 1777360219 | 10.56° C | 65% | 1020.2 hPa | 0 mm | - | 257 W/m² | - |
* Rain latest hour (hover to see other rain measurements)
** Current wind speed in m/s (hover to see current wind gust speed)